User: anonymous   Login
Location: Oshawa
(43.9000°N, 78.8670°W)
Time: 11:01:13
(UTC-04:00)
Language:

Cosmos 2333 Rocket - Orbit

View from above orbital plane
View from above orbital plane
View from above satellite
View from above satellite

Ground track
Ground track

The orbit data is extracted from the following two-line orbital elements,

1 24298U 96051B   17265.03011529 -.00000156  00000-0 -58258-4 0  9994
2 24298  70.8484 218.0216 0013546  31.5304 328.6625 14.12491002 85495
Epoch (UTC): 22 September 2017 00:43:21
Eccentricity: 0.0013546
inclination: 70.8484°
perigee height: 841 km
apogee height: 860 km
right ascension of ascending node: 218.0216°
argument of perigee: 31.5304°
revolutions per day: 14.12491002
mean anomaly at epoch: 328.6625°
orbit number at epoch: 8549

The dashed part of the orbit path shows where the satellite is in the earth's shadow,  

DLR